Time,TemperatureF,DewpointF,PressureIn,WindDirection,WindDirectionDegrees,WindSpeedMPH,WindSpeedGustMPH,Humidity,HourlyPrecipIn,Conditions,Clouds,dailyrainin,SolarRadiationWatts/m^2,SoftwareType,DateUTC
2013-04-30 00:01:00,56.1,52.9,29.92,SE,128,0.2,2.3,89,0.00,OVC,SCT,0.00,0.0,WeatherDisplay:10.37,2013-04-30 04:01:00,
2013-04-30 00:02:00,56.1,52.9,29.92,SE,128,0.0,1.2,89,0.00,OVC,SCT,0.00,0.0,WeatherDisplay:10.37,2013-04-30 04:02:00,
2013-04-30 00:03:00,56.1,52.9,29.91,SE,128,0.0,0.0,89,0.00,OVC,SCT,0.00,0.0,WeatherDisplay:10.37,2013-04-30 04:03:00,
2013-04-30 00:06:00,56.1,52.9,29.91,SE,128,0.0,0.0,89,0.00,OVC,SCT,0.00,0.0,WeatherDisplay:10.37,2013-04-30 04:06:00,
2013-04-30 00:11:00,56.2,53.0,29.91,SE,128,0.3,1.2,89,0.00,OVC,SCT,0.00,0.0,WeatherDisplay:10.37,2013-04-30 04:11:00,
2013-04-30 00:16:00,56.3,53.1,29.91,SE,128,0.0,0.0,89,0.00,OVC,SCT,0.00,0.0,WeatherDisplay:10.37,2013-04-30 04:16:00,
2013-04-30 00:21:00,56.3,53.1,29.92,SE,128,0.0,0.0,89,0.00,OVC,SCT,0.00,0.0,WeatherDisplay:10.37,2013-04-30 04:21:00,
2013-04-30 00:26:00,56.3,53.1,29.92,SE,128,0.4,1.2,89,0.00,OVC,SCT,0.00,0.0,WeatherDisplay:10.37,2013-04-30 04:26:00,
2013-04-30 00:31:00,56.4,53.5,29.92,SE,128,0.0,0.0,90,0.00,OVC,SCT,0.00,0.0,WeatherDisplay:10.37,2013-04-30 04:31:00,
2013-04-30 00:36:00,56.5,53.6,29.92,SE,128,0.0,0.0,90,0.00,OVC,SCT,0.00,0.0,WeatherDisplay:10.37,2013-04-30 04:36:00,
2013-04-30 00:41:00,56.6,53.7,29.92,SE,128,0.0,0.0,90,0.00,OVC,SCT,0.00,0.0,WeatherDisplay:10.37,2013-04-30 04:41:00,
2013-04-30 00:46:00,56.7,53.8,29.93,SE,128,0.0,0.0,90,0.00,OVC,SCT,0.00,0.0,WeatherDisplay:10.37,2013-04-30 04:46:00,
2013-04-30 00:51:00,56.7,53.5,29.92,SE,128,0.0,0.0,89,0.00,OVC,SCT,0.00,0.0,WeatherDisplay:10.37,2013-04-30 04:51:00,
2013-04-30 00:56:00,56.7,53.8,29.92,SE,128,0.0,0.0,90,0.00,OVC,SCT,0.00,0.0,WeatherDisplay:10.37,2013-04-30 04:56:00,
2013-04-30 01:01:00,56.6,53.7,29.92,SE,128,0.0,0.0,90,0.00,-RA,SCT,0.00,0.0,WeatherDisplay:10.37,2013-04-30 05:01:00,
2013-04-30 01:06:00,56.6,53.7,29.93,SE,128,0.0,0.0,90,0.00,-RA,SCT,0.00,0.0,WeatherDisplay:10.37,2013-04-30 05:06:00,
2013-04-30 01:11:00,56.6,53.7,29.93,SE,128,0.0,0.0,90,0.00,-RA,SCT,0.00,0.0,WeatherDisplay:10.37,2013-04-30 05:11:00,
2013-04-30 01:16:00,56.6,53.7,29.93,SE,128,0.0,0.0,90,0.00,-RA,SCT,0.00,0.0,WeatherDisplay:10.37,2013-04-30 05:16:00,
2013-04-30 01:21:00,56.6,53.7,29.93,SE,128,0.0,0.0,90,0.00,-RA,SCT,0.00,0.0,WeatherDisplay:10.37,2013-04-30 05:21:00,
2013-04-30 01:26:00,56.6,53.7,29.93,SE,128,0.0,0.0,90,0.00,-RA,SCT,0.00,0.0,WeatherDisplay:10.37,2013-04-30 05:26:00,
2013-04-30 01:31:00,56.5,53.6,29.93,SE,128,0.0,0.0,90,0.00,-RA,SCT,0.00,0.0,WeatherDisplay:10.37,2013-04-30 05:31:00,
2013-04-30 01:36:00,56.5,53.6,29.93,SE,128,0.0,0.0,90,0.00,-RA,SCT,0.00,0.0,WeatherDisplay:10.37,2013-04-30 05:36:00,
2013-04-30 01:41:00,56.4,53.5,29.93,SE,128,0.0,0.0,90,0.00,-RA,SCT,0.00,0.0,WeatherDisplay:10.37,2013-04-30 05:41:00,
2013-04-30 01:46:00,56.4,53.5,29.93,SE,128,0.0,0.0,90,0.00,-RA,SCT,0.00,0.0,WeatherDisplay:10.37,2013-04-30 05:46:00,
2013-04-30 01:51:00,56.4,53.5,29.93,SE,128,0.0,0.0,90,0.00,-RA,SCT,0.00,0.0,WeatherDisplay:10.37,2013-04-30 05:51:00,
2013-04-30 01:56:00,56.4,53.5,29.93,SE,128,0.0,0.0,90,0.00,-RA,SCT,0.00,0.0,WeatherDisplay:10.37,2013-04-30 05:56:00,
2013-04-30 02:01:00,56.3,53.4,29.93,SE,128,0.0,0.0,90,0.00,OVC,SCT,0.00,0.0,WeatherDisplay:10.37,2013-04-30 06:01:00,
2013-04-30 02:06:00,56.3,53.7,29.93,SE,128,0.0,0.0,91,0.00,OVC,SCT,0.00,0.0,WeatherDisplay:10.37,2013-04-30 06:06:00,
2013-04-30 02:11:00,56.3,53.4,29.93,SE,128,0.0,0.0,90,0.00,OVC,SCT,0.00,0.0,WeatherDisplay:10.37,2013-04-30 06:11:00,
2013-04-30 02:16:00,56.3,53.7,29.93,SE,128,0.1,0.0,91,0.00,OVC,SCT,0.00,0.0,WeatherDisplay:10.37,2013-04-30 06:16:00,
2013-04-30 02:21:00,56.2,53.6,29.93,SE,128,0.0,0.0,91,0.00,OVC,SCT,0.00,0.0,WeatherDisplay:10.37,2013-04-30 06:21:00,
2013-04-30 02:26:00,56.2,53.6,29.93,SE,128,0.0,0.0,91,0.00,OVC,SCT,0.00,0.0,WeatherDisplay:10.37,2013-04-30 06:26:00,
2013-04-30 02:31:00,56.2,53.6,29.93,SE,128,0.0,0.0,91,0.00,OVC,SCT,0.00,0.0,WeatherDisplay:10.37,2013-04-30 06:31:00,
2013-04-30 02:36:00,56.2,53.6,29.93,SE,135,0.0,0.0,91,0.00,OVC,SCT,0.00,0.0,WeatherDisplay:10.37,2013-04-30 06:36:00,
2013-04-30 02:41:00,56.3,53.7,29.94,SE,135,0.0,0.0,91,0.00,OVC,SCT,0.00,0.0,WeatherDisplay:10.37,2013-04-30 06:41:00,
2013-04-30 02:46:00,56.2,53.6,29.94,SE,135,0.0,0.0,91,0.00,OVC,SCT,0.00,0.0,WeatherDisplay:10.37,2013-04-30 06:46:00,
2013-04-30 02:51:00,56.2,53.6,29.94,SE,135,0.0,0.0,91,0.00,OVC,SCT,0.00,0.0,WeatherDisplay:10.37,2013-04-30 06:51:00,
2013-04-30 02:56:00,56.1,53.5,29.93,SE,135,0.0,0.0,91,0.00,OVC,SCT,0.00,0.0,WeatherDisplay:10.37,2013-04-30 06:56:00,
2013-04-30 03:01:00,56.1,53.5,29.93,SE,135,0.0,0.0,91,0.00,OVC,SCT,0.00,0.0,WeatherDisplay:10.37,2013-04-30 07:01:00,
2013-04-30 03:06:00,56.0,53.4,29.93,SE,135,0.0,0.0,91,0.00,OVC,SCT,0.00,0.0,WeatherDisplay:10.37,2013-04-30 07:06:00,
2013-04-30 03:11:00,55.9,53.3,29.94,SE,135,0.0,0.0,91,0.00,OVC,SCT,0.00,0.0,WeatherDisplay:10.37,2013-04-30 07:11:00,
2013-04-30 03:16:00,55.7,53.1,29.94,SE,135,0.0,0.0,91,0.00,OVC,SCT,0.00,0.0,WeatherDisplay:10.37,2013-04-30 07:16:00,
2013-04-30 03:21:00,55.5,52.9,29.94,SE,135,0.0,0.0,91,0.00,OVC,SCT,0.00,0.0,WeatherDisplay:10.37,2013-04-30 07:21:00,
2013-04-30 03:26:00,55.3,52.7,29.94,SE,135,0.0,0.0,91,0.00,OVC,SCT,0.00,0.0,WeatherDisplay:10.37,2013-04-30 07:26:00,
2013-04-30 03:31:00,55.1,52.8,29.94,SE,135,0.0,0.0,92,0.00,OVC,SCT,0.00,0.0,WeatherDisplay:10.37,2013-04-30 07:31:00,
2013-04-30 03:36:00,55.1,53.1,29.93,SE,135,0.0,0.0,93,0.00,OVC,SCT,0.00,0.0,WeatherDisplay:10.37,2013-04-30 07:36:00,
2013-04-30 03:41:00,55.1,53.1,29.94,SE,135,0.0,0.0,93,0.00,OVC,SCT,0.00,0.0,WeatherDisplay:10.37,2013-04-30 07:41:00,
2013-04-30 03:46:00,55.2,53.2,29.94,SE,135,0.0,0.0,93,0.00,OVC,SCT,0.00,0.0,WeatherDisplay:10.37,2013-04-30 07:46:00,
2013-04-30 03:51:00,55.2,53.2,29.94,SE,135,0.0,0.0,93,0.00,OVC,SCT,0.00,0.0,WeatherDisplay:10.37,2013-04-30 07:51:00,
2013-04-30 03:56:00,55.1,53.1,29.94,SE,135,0.0,0.0,93,0.00,OVC,SCT,0.00,0.0,WeatherDisplay:10.37,2013-04-30 07:56:00,
2013-04-30 04:01:00,55.0,52.7,29.94,SE,135,0.0,0.0,92,0.00,BKN,SCT,0.00,0.0,WeatherDisplay:10.37,2013-04-30 08:01:00,
2013-04-30 04:06:00,54.8,52.5,29.94,SE,135,0.0,0.0,92,0.00,BKN,SCT,0.00,0.0,WeatherDisplay:10.37,2013-04-30 08:06:00,
2013-04-30 04:11:00,54.5,51.9,29.95,SE,135,0.0,0.0,91,0.00,BKN,SCT,0.00,0.0,WeatherDisplay:10.37,2013-04-30 08:11:00,
2013-04-30 04:16:00,54.2,51.9,29.95,SE,135,0.0,0.0,92,0.00,BKN,SCT,0.00,0.0,WeatherDisplay:10.37,2013-04-30 08:16:00,
2013-04-30 04:21:00,53.9,51.6,29.95,SE,135,0.0,0.0,92,0.00,BKN,SCT,0.00,0.0,WeatherDisplay:10.37,2013-04-30 08:21:00,
2013-04-30 04:26:00,53.6,51.3,29.95,SE,135,0.0,0.0,92,0.00,BKN,SCT,0.00,0.0,WeatherDisplay:10.37,2013-04-30 08:26:00,
2013-04-30 04:31:00,53.4,51.1,29.96,SE,135,0.0,0.0,92,0.00,BKN,SCT,0.00,0.0,WeatherDisplay:10.37,2013-04-30 08:31:00,
2013-04-30 04:36:00,53.1,51.1,29.95,SE,135,0.0,0.0,93,0.00,BKN,SCT,0.00,0.0,WeatherDisplay:10.37,2013-04-30 08:36:00,
2013-04-30 04:41:00,52.9,50.9,29.96,SE,135,0.0,0.0,93,0.00,BKN,SCT,0.00,0.0,WeatherDisplay:10.37,2013-04-30 08:41:00,
2013-04-30 04:46:00,52.7,50.7,29.95,SE,135,0.0,0.0,93,0.00,BKN,SCT,0.00,0.0,WeatherDisplay:10.37,2013-04-30 08:46:00,
2013-04-30 04:51:00,52.6,50.9,29.95,SE,135,0.0,0.0,94,0.00,BKN,SCT,0.00,0.0,WeatherDisplay:10.37,2013-04-30 08:51:00,
2013-04-30 04:56:00,52.6,51.2,29.95,SE,135,0.0,0.0,95,0.00,BKN,SCT,0.00,0.0,WeatherDisplay:10.37,2013-04-30 08:56:00,
2013-04-30 05:01:00,52.9,51.5,29.95,SE,135,0.0,0.0,95,0.00,BKN,SCT,0.00,0.0,WeatherDisplay:10.37,2013-04-30 09:01:00,
2013-04-30 05:06:00,53.1,51.7,29.95,SE,135,0.0,0.0,95,0.00,BKN,SCT,0.00,0.0,WeatherDisplay:10.37,2013-04-30 09:06:00,
2013-04-30 05:11:00,53.3,51.9,29.95,SE,135,0.0,0.0,95,0.00,BKN,SCT,0.00,0.0,WeatherDisplay:10.37,2013-04-30 09:11:00,
2013-04-30 05:16:00,53.4,52.0,29.95,SE,135,0.0,0.0,95,0.00,BKN,SCT,0.00,0.0,WeatherDisplay:10.37,2013-04-30 09:16:00,
2013-04-30 05:21:00,53.4,52.0,29.95,SE,135,0.0,0.0,95,0.00,BKN,SCT,0.00,0.0,WeatherDisplay:10.37,2013-04-30 09:21:00,
2013-04-30 05:26:00,53.3,51.6,29.96,SE,135,0.0,0.0,94,0.00,BKN,SCT,0.00,0.0,WeatherDisplay:10.37,2013-04-30 09:26:00,
2013-04-30 05:31:00,53.2,51.5,29.96,SE,135,0.0,0.0,94,0.00,BKN,SCT,0.00,0.0,WeatherDisplay:10.37,2013-04-30 09:31:00,
2013-04-30 05:36:00,53.1,51.7,29.95,SE,135,0.0,0.0,95,0.00,BKN,SCT,0.00,0.0,WeatherDisplay:10.37,2013-04-30 09:36:00,
2013-04-30 05:41:00,53.2,51.8,29.95,SE,135,0.0,0.0,95,0.00,BKN,SCT,0.00,0.0,WeatherDisplay:10.37,2013-04-30 09:41:00,
2013-04-30 05:46:00,53.1,51.7,29.95,SE,135,0.0,0.0,95,0.00,BKN,SCT,0.00,0.0,WeatherDisplay:10.37,2013-04-30 09:46:00,
2013-04-30 05:51:00,53.0,51.3,29.95,SE,135,0.0,0.0,94,0.00,BKN,SCT,0.00,0.0,WeatherDisplay:10.37,2013-04-30 09:51:00,
2013-04-30 05:56:00,52.8,51.1,29.95,SE,135,0.0,0.0,94,0.00,BKN,SCT,0.00,0.0,WeatherDisplay:10.37,2013-04-30 09:56:00,
2013-04-30 06:01:00,52.8,51.1,29.95,SE,135,0.0,0.0,94,0.00,BKN,SCT,0.00,0.0,WeatherDisplay:10.37,2013-04-30 10:01:00,
2013-04-30 06:06:00,52.6,50.9,29.95,SE,135,0.0,0.0,94,0.00,BKN,SCT,0.00,0.0,WeatherDisplay:10.37,2013-04-30 10:06:00,
2013-04-30 06:11:00,52.4,50.7,29.95,SE,135,0.0,0.0,94,0.00,BKN,SCT,0.00,0.0,WeatherDisplay:10.37,2013-04-30 10:11:00,
2013-04-30 06:16:00,52.4,51.0,29.95,SE,135,0.0,0.0,95,0.00,BKN,SCT,0.00,0.0,WeatherDisplay:10.37,2013-04-30 10:16:00,
2013-04-30 06:21:00,52.3,50.9,29.95,SE,135,0.0,0.0,95,0.00,BKN,SCT,0.00,0.0,WeatherDisplay:10.37,2013-04-30 10:21:00,
2013-04-30 06:26:00,52.3,50.9,29.95,SE,135,0.0,0.0,95,0.00,BKN,SCT,0.00,0.0,WeatherDisplay:10.37,2013-04-30 10:26:00,
2013-04-30 06:31:00,52.2,50.8,29.95,SE,135,0.0,0.0,95,0.00,BKN,SCT,0.00,0.0,WeatherDisplay:10.37,2013-04-30 10:31:00,
2013-04-30 06:36:00,52.2,50.8,29.95,SE,135,0.8,1.2,95,0.00,BKN,SCT,0.00,0.0,WeatherDisplay:10.37,2013-04-30 10:36:00,
2013-04-30 06:41:00,52.3,50.9,29.95,SE,135,0.5,1.2,95,0.00,BKN,SCT,0.00,7.0,WeatherDisplay:10.37,2013-04-30 10:41:00,
2013-04-30 06:46:00,52.3,51.2,29.95,SE,134,0.1,1.2,96,0.00,BKN,SCT,0.00,9.0,WeatherDisplay:10.37,2013-04-30 10:46:00,
2013-04-30 06:51:00,52.3,51.2,29.95,SE,134,0.0,0.0,96,0.00,BKN,SCT,0.00,11.0,WeatherDisplay:10.37,2013-04-30 10:51:00,
2013-04-30 06:56:00,52.3,51.2,29.95,SE,134,0.1,1.2,96,0.00,BKN,SCT,0.00,12.0,WeatherDisplay:10.37,2013-04-30 10:56:00,
2013-04-30 07:01:00,52.3,51.2,29.95,SE,134,0.0,0.0,96,0.00,SCT,,0.00,16.0,WeatherDisplay:10.37,2013-04-30 11:01:00,
2013-04-30 07:06:00,52.4,51.3,29.96,SE,134,0.0,0.0,96,0.00,SCT,,0.00,18.0,WeatherDisplay:10.37,2013-04-30 11:06:00,
2013-04-30 07:11:00,52.4,51.3,29.96,SE,134,0.0,0.0,96,0.00,SCT,,0.00,19.0,WeatherDisplay:10.37,2013-04-30 11:11:00,
2013-04-30 07:16:00,52.5,51.4,29.96,SE,134,0.1,1.2,96,0.00,SCT,,0.00,21.0,WeatherDisplay:10.37,2013-04-30 11:16:00,
2013-04-30 07:21:00,52.6,51.5,29.96,SE,134,0.0,1.2,96,0.00,SCT,,0.00,25.0,WeatherDisplay:10.37,2013-04-30 11:21:00,
2013-04-30 07:26:00,52.8,51.7,29.97,SE,134,0.0,0.0,96,0.00,SCT,,0.00,26.0,WeatherDisplay:10.37,2013-04-30 11:26:00,
2013-04-30 07:31:00,52.8,51.7,29.98,SE,134,0.0,0.0,96,0.00,SCT,,0.00,30.0,WeatherDisplay:10.37,2013-04-30 11:31:00,
2013-04-30 07:36:00,53.0,51.9,29.98,SE,134,0.1,1.2,96,0.00,SCT,,0.00,32.0,WeatherDisplay:10.37,2013-04-30 11:36:00,
2013-04-30 07:41:00,53.2,52.1,29.98,SE,134,0.1,1.2,96,0.00,SCT,,0.00,35.0,WeatherDisplay:10.37,2013-04-30 11:41:00,
2013-04-30 07:46:00,53.5,52.4,29.99,SSE,148,0.0,0.0,96,0.00,SCT,,0.00,37.0,WeatherDisplay:10.37,2013-04-30 11:46:00,
2013-04-30 07:51:00,53.7,52.3,29.99,SSE,155,0.1,1.0,95,0.00,SCT,,0.00,53.0,WeatherDisplay:10.37,2013-04-30 11:51:00,
2013-04-30 07:56:00,54.0,52.6,30.00,South,177,0.1,1.0,95,0.00,SCT,,0.00,47.0,WeatherDisplay:10.37,2013-04-30 11:56:00,
2013-04-30 08:01:00,54.4,53.0,29.99,South,173,0.1,1.2,95,0.00,SCT,,0.00,42.0,WeatherDisplay:10.37,2013-04-30 12:01:00,
2013-04-30 08:06:00,54.7,53.0,29.99,SSE,155,0.2,1.2,94,0.00,SCT,,0.00,42.0,WeatherDisplay:10.37,2013-04-30 12:06:00,
2013-04-30 08:11:00,55.1,53.4,29.99,SW,219,0.8,2.0,94,0.00,SCT,,0.00,63.0,WeatherDisplay:10.37,2013-04-30 12:11:00,
2013-04-30 08:16:00,55.6,53.6,29.99,South,169,0.4,2.3,93,0.00,SCT,,0.00,49.0,WeatherDisplay:10.37,2013-04-30 12:16:00,
2013-04-30 08:21:00,56.0,53.7,29.99,South,179,0.4,2.3,92,0.00,SCT,,0.00,47.0,WeatherDisplay:10.37,2013-04-30 12:21:00,
2013-04-30 08:26:00,56.4,54.1,29.99,SSW,207,0.4,2.3,92,0.00,SCT,,0.00,53.0,WeatherDisplay:10.37,2013-04-30 12:26:00,
2013-04-30 08:31:00,56.8,54.2,29.99,South,182,0.7,4.6,91,0.00,SCT,,0.00,58.0,WeatherDisplay:10.37,2013-04-30 12:31:00,
2013-04-30 08:36:00,57.1,54.2,30.00,WSW,257,1.6,4.0,90,0.00,SCT,,0.00,62.0,WeatherDisplay:10.37,2013-04-30 12:36:00,
2013-04-30 08:41:00,57.5,54.3,30.00,WSW,250,1.2,2.3,89,0.00,SCT,,0.00,62.0,WeatherDisplay:10.37,2013-04-30 12:41:00,
2013-04-30 08:46:00,57.9,54.7,30.01,ESE,117,0.0,1.2,89,0.00,SCT,,0.00,67.0,WeatherDisplay:10.37,2013-04-30 12:46:00,
2013-04-30 08:51:00,58.3,54.8,30.01,SSE,166,0.9,2.3,88,0.00,SCT,,0.00,63.0,WeatherDisplay:10.37,2013-04-30 12:51:00,
2013-04-30 08:56:00,58.6,54.7,30.01,SSE,158,1.8,3.5,87,0.00,SCT,,0.00,63.0,WeatherDisplay:10.37,2013-04-30 12:56:00,
2013-04-30 09:01:00,59.0,54.8,30.00,SE,134,1.1,2.3,86,0.00,BKN,SCT,0.00,72.0,WeatherDisplay:10.37,2013-04-30 13:01:00,
2013-04-30 09:06:00,59.4,54.9,30.00,SSE,149,2.1,3.5,85,0.00,BKN,SCT,0.00,84.0,WeatherDisplay:10.37,2013-04-30 13:06:00,
2013-04-30 09:11:00,59.8,55.3,30.01,SE,131,0.9,3.5,85,0.00,BKN,SCT,0.00,148.0,WeatherDisplay:10.37,2013-04-30 13:11:00,
2013-04-30 09:16:00,60.3,55.1,30.01,SW,221,1.0,3.5,83,0.00,BKN,SCT,0.00,146.0,WeatherDisplay:10.37,2013-04-30 13:16:00,
2013-04-30 09:21:00,60.7,55.2,30.01,SE,136,0.9,3.5,82,0.00,BKN,SCT,0.00,142.0,WeatherDisplay:10.37,2013-04-30 13:21:00,
2013-04-30 09:26:00,61.2,55.7,30.01,SSW,207,0.4,3.5,82,0.00,BKN,SCT,0.00,142.0,WeatherDisplay:10.37,2013-04-30 13:26:00,
2013-04-30 09:31:00,61.8,56.2,30.01,SE,144,0.2,2.3,82,0.00,BKN,SCT,0.00,181.0,WeatherDisplay:10.37,2013-04-30 13:31:00,
2013-04-30 09:36:00,62.3,56.0,30.01,SW,224,0.7,3.5,80,0.00,BKN,SCT,0.00,167.0,WeatherDisplay:10.37,2013-04-30 13:36:00,
2013-04-30 09:41:00,62.6,56.0,30.02,ESE,113,2.0,4.0,79,0.00,BKN,SCT,0.00,302.0,WeatherDisplay:10.37,2013-04-30 13:41:00,
2013-04-30 09:46:00,63.2,55.9,30.02,SE,124,1.2,2.3,77,0.00,BKN,SCT,0.00,301.0,WeatherDisplay:10.37,2013-04-30 13:46:00,
2013-04-30 09:51:00,63.6,55.9,30.03,SE,129,0.4,3.5,76,0.00,BKN,SCT,0.00,232.0,WeatherDisplay:10.37,2013-04-30 13:51:00,
2013-04-30 09:56:00,63.8,56.1,30.02,SE,125,0.9,3.5,76,0.00,BKN,SCT,0.00,204.0,WeatherDisplay:10.37,2013-04-30 13:56:00,
2013-04-30 10:01:00,63.8,55.7,30.02,NW,314,0.4,3.5,75,0.00,BKN,SCT,0.00,248.0,WeatherDisplay:10.37,2013-04-30 14:01:00,
2013-04-30 10:06:00,64.0,55.5,30.02,SW,234,1.4,3.5,74,0.00,BKN,SCT,0.00,267.0,WeatherDisplay:10.37,2013-04-30 14:06:00,
2013-04-30 10:11:00,64.5,56.0,30.02,SSE,164,2.1,3.5,74,0.00,BKN,SCT,0.00,285.0,WeatherDisplay:10.37,2013-04-30 14:11:00,
2013-04-30 10:16:00,64.6,55.4,30.02,SE,139,3.0,6.9,72,0.00,BKN,SCT,0.00,325.0,WeatherDisplay:10.37,2013-04-30 14:16:00,
2013-04-30 10:21:00,64.7,55.5,30.02,SE,144,0.5,2.3,72,0.00,BKN,SCT,0.00,311.0,WeatherDisplay:10.37,2013-04-30 14:21:00,
2013-04-30 10:26:00,64.8,55.9,30.02,ESE,121,2.7,8.0,73,0.00,BKN,SCT,0.00,285.0,WeatherDisplay:10.37,2013-04-30 14:26:00,
2013-04-30 10:31:00,64.7,55.5,30.03,SW,227,0.4,2.3,72,0.00,BKN,SCT,0.00,267.0,WeatherDisplay:10.37,2013-04-30 14:31:00,
2013-04-30 10:36:00,64.8,55.9,30.03,SSE,150,0.1,1.2,73,0.00,BKN,SCT,0.00,206.0,WeatherDisplay:10.37,2013-04-30 14:36:00,
2013-04-30 10:41:00,64.8,55.6,30.03,SW,230,1.2,3.5,72,0.00,BKN,SCT,0.00,229.0,WeatherDisplay:10.37,2013-04-30 14:41:00,
2013-04-30 10:46:00,64.6,55.0,30.03,NW,313,1.2,3.5,71,0.00,BKN,SCT,0.00,243.0,WeatherDisplay:10.37,2013-04-30 14:46:00,
2013-04-30 10:51:00,64.5,55.7,30.03,South,190,0.5,2.3,73,0.00,BKN,SCT,0.00,250.0,WeatherDisplay:10.37,2013-04-30 14:51:00,
2013-04-30 10:56:00,64.6,55.7,30.03,SW,220,0.4,2.3,73,0.00,BKN,SCT,0.00,213.0,WeatherDisplay:10.37,2013-04-30 14:56:00,
2013-04-30 11:01:00,64.6,55.7,30.03,SE,144,2.2,5.8,73,0.00,OVC,SCT,0.00,165.0,WeatherDisplay:10.37,2013-04-30 15:01:00,
2013-04-30 11:06:00,64.5,55.7,30.04,SW,231,0.9,2.3,73,0.00,OVC,SCT,0.00,167.0,WeatherDisplay:10.37,2013-04-30 15:06:00,
2013-04-30 11:11:00,64.5,55.3,30.04,SSW,192,0.7,2.3,72,0.00,OVC,SCT,0.00,163.0,WeatherDisplay:10.37,2013-04-30 15:11:00,
2013-04-30 11:16:00,64.5,54.9,30.04,South,191,1.8,3.5,71,0.00,OVC,SCT,0.00,169.0,WeatherDisplay:10.37,2013-04-30 15:16:00,
2013-04-30 11:21:00,64.5,55.7,30.04,SSE,167,0.3,2.3,73,0.00,OVC,SCT,0.00,171.0,WeatherDisplay:10.37,2013-04-30 15:21:00,
2013-04-30 11:26:00,64.5,55.3,30.04,SE,132,0.7,2.3,72,0.00,OVC,SCT,0.00,165.0,WeatherDisplay:10.37,2013-04-30 15:26:00,
2013-04-30 11:31:00,64.6,55.0,30.04,SSE,165,1.4,3.5,71,0.00,OVC,SCT,0.00,160.0,WeatherDisplay:10.37,2013-04-30 15:31:00,
2013-04-30 11:36:00,64.5,55.3,30.05,SSW,192,0.1,2.3,72,0.00,OVC,SCT,0.00,158.0,WeatherDisplay:10.37,2013-04-30 15:36:00,
2013-04-30 11:41:00,64.5,54.9,30.05,SSW,202,1.3,3.5,71,0.00,OVC,SCT,0.00,153.0,WeatherDisplay:10.37,2013-04-30 15:41:00,
2013-04-30 11:46:00,64.3,55.1,30.05,SSE,153,1.6,3.5,72,0.00,OVC,SCT,0.00,139.0,WeatherDisplay:10.37,2013-04-30 15:46:00,
2013-04-30 11:51:00,64.3,55.5,30.05,SE,138,0.9,3.5,73,0.00,OVC,SCT,0.00,134.0,WeatherDisplay:10.37,2013-04-30 15:51:00,
2013-04-30 11:56:00,64.3,55.5,30.05,ESE,119,0.9,2.3,73,0.00,OVC,SCT,0.00,114.0,WeatherDisplay:10.37,2013-04-30 15:56:00,
2013-04-30 12:01:00,64.2,55.4,30.06,SE,128,1.0,2.3,73,0.00,OVC,SCT,0.00,83.0,WeatherDisplay:10.37,2013-04-30 16:01:00,
2013-04-30 12:06:00,64.0,54.8,30.06,SSE,160,1.2,3.5,72,0.00,OVC,SCT,0.00,65.0,WeatherDisplay:10.37,2013-04-30 16:06:00,
2013-04-30 12:11:00,63.9,55.1,30.06,South,188,0.1,3.5,73,0.00,OVC,SCT,0.00,54.0,WeatherDisplay:10.37,2013-04-30 16:11:00,
2013-04-30 12:16:00,63.8,55.4,30.05,South,187,0.0,3.5,74,0.00,OVC,SCT,0.00,69.0,WeatherDisplay:10.37,2013-04-30 16:16:00,
2013-04-30 12:21:00,63.7,55.3,30.05,SSE,164,2.0,3.5,74,0.00,OVC,SCT,0.00,83.0,WeatherDisplay:10.37,2013-04-30 16:21:00,
2013-04-30 12:26:00,63.7,55.3,30.05,SE,130,1.3,3.5,74,0.00,OVC,SCT,0.00,91.0,WeatherDisplay:10.37,2013-04-30 16:26:00,
2013-04-30 12:31:00,63.6,55.2,30.06,ESE,123,1.8,3.5,74,0.00,OVC,SCT,0.00,90.0,WeatherDisplay:10.37,2013-04-30 16:31:00,
2013-04-30 12:36:00,63.7,55.3,30.05,ESE,123,1.0,3.5,74,0.00,OVC,SCT,0.00,83.0,WeatherDisplay:10.37,2013-04-30 16:36:00,
2013-04-30 12:41:00,63.8,55.4,30.04,ESE,122,1.9,4.0,74,0.00,OVC,SCT,0.00,74.0,WeatherDisplay:10.37,2013-04-30 16:41:00,
2013-04-30 12:46:00,63.8,55.7,30.03,SE,130,3.2,4.6,75,0.00,OVC,SCT,0.00,62.0,WeatherDisplay:10.37,2013-04-30 16:46:00,
2013-04-30 12:51:00,63.7,55.3,30.02,East,96,3.0,4.0,74,0.00,OVC,SCT,0.00,62.0,WeatherDisplay:10.37,2013-04-30 16:51:00,
2013-04-30 12:56:00,63.7,55.6,30.01,ESE,118,3.9,7.0,75,0.00,OVC,SCT,0.00,70.0,WeatherDisplay:10.37,2013-04-30 16:56:00,
2013-04-30 13:01:00,63.6,55.5,30.00,ESE,122,3.8,7.0,75,0.00,OVC,SCT,0.00,86.0,WeatherDisplay:10.37,2013-04-30 17:01:00,
2013-04-30 13:06:00,63.6,55.5,30.01,SE,128,2.8,5.0,75,0.00,OVC,SCT,0.00,100.0,WeatherDisplay:10.37,2013-04-30 17:06:00,
2013-04-30 13:11:00,63.6,55.2,30.01,SE,132,2.6,4.6,74,0.00,OVC,SCT,0.00,120.0,WeatherDisplay:10.37,2013-04-30 17:11:00,
2013-04-30 13:16:00,63.8,55.4,30.01,South,178,1.8,4.6,74,0.00,OVC,SCT,0.00,139.0,WeatherDisplay:10.37,2013-04-30 17:16:00,
2013-04-30 13:21:00,64.0,55.5,30.02,South,175,0.3,1.2,74,0.00,OVC,SCT,0.00,155.0,WeatherDisplay:10.37,2013-04-30 17:21:00,
2013-04-30 13:26:00,64.2,55.7,30.02,SE,139,2.6,4.6,74,0.00,OVC,SCT,0.00,171.0,WeatherDisplay:10.37,2013-04-30 17:26:00,
2013-04-30 13:31:00,64.5,55.7,30.01,ESE,117,2.0,3.5,73,0.00,OVC,SCT,0.00,190.0,WeatherDisplay:10.37,2013-04-30 17:31:00,
2013-04-30 13:36:00,64.7,55.5,30.02,ESE,111,3.8,5.8,72,0.00,OVC,SCT,0.00,213.0,WeatherDisplay:10.37,2013-04-30 17:36:00,
2013-04-30 13:41:00,64.9,55.7,30.01,SSE,159,1.0,3.5,72,0.00,OVC,SCT,0.00,229.0,WeatherDisplay:10.37,2013-04-30 17:41:00,
2013-04-30 13:46:00,65.1,55.5,30.01,South,179,2.1,4.6,71,0.00,OVC,SCT,0.00,246.0,WeatherDisplay:10.37,2013-04-30 17:46:00,
2013-04-30 13:51:00,65.3,55.7,30.00,SE,137,2.8,4.6,71,0.00,OVC,SCT,0.00,267.0,WeatherDisplay:10.37,2013-04-30 17:51:00,
2013-04-30 13:56:00,65.6,55.5,30.00,South,188,3.1,6.9,70,0.00,OVC,SCT,0.00,301.0,WeatherDisplay:10.37,2013-04-30 17:56:00,
2013-04-30 14:01:00,65.9,55.8,30.00,South,173,2.2,4.6,70,0.00,OVC,SCT,0.00,323.0,WeatherDisplay:10.37,2013-04-30 18:01:00,
2013-04-30 14:06:00,66.3,55.8,30.00,SSE,152,3.3,8.1,69,0.00,OVC,SCT,0.00,327.0,WeatherDisplay:10.37,2013-04-30 18:06:00,
2013-04-30 14:11:00,66.5,55.6,30.00,SE,127,2.1,6.9,68,0.00,OVC,SCT,0.00,369.0,WeatherDisplay:10.37,2013-04-30 18:11:00,
2013-04-30 14:16:00,66.9,56.0,30.00,SE,138,3.8,8.1,68,0.00,OVC,SCT,0.00,531.0,WeatherDisplay:10.37,2013-04-30 18:16:00,
2013-04-30 14:21:00,67.3,56.4,30.00,SSE,160,3.3,6.0,68,0.00,OVC,SCT,0.00,606.0,WeatherDisplay:10.37,2013-04-30 18:21:00,
2013-04-30 14:26:00,67.8,56.4,29.99,SE,130,4.2,8.1,67,0.00,OVC,SCT,0.00,680.0,WeatherDisplay:10.37,2013-04-30 18:26:00,
2013-04-30 14:31:00,68.5,57.1,29.99,SSW,198,2.5,5.8,67,0.00,OVC,SCT,0.00,710.0,WeatherDisplay:10.37,2013-04-30 18:31:00,
2013-04-30 14:36:00,69.2,56.5,29.99,ESE,121,5.1,9.2,64,0.00,OVC,SCT,0.00,663.0,WeatherDisplay:10.37,2013-04-30 18:36:00,
2013-04-30 14:41:00,69.3,56.6,29.99,ESE,111,4.0,11.0,64,0.00,OVC,SCT,0.00,666.0,WeatherDisplay:10.37,2013-04-30 18:41:00,
2013-04-30 14:46:00,69.3,56.2,29.99,ESE,123,4.5,8.1,63,0.00,OVC,SCT,0.00,570.0,WeatherDisplay:10.37,2013-04-30 18:46:00,
2013-04-30 14:51:00,69.1,56.0,29.99,ESE,112,3.8,6.9,63,0.00,OVC,SCT,0.00,420.0,WeatherDisplay:10.37,2013-04-30 18:51:00,
2013-04-30 14:56:00,69.1,56.4,29.99,SE,134,3.1,4.6,64,0.00,OVC,SCT,0.00,431.0,WeatherDisplay:10.37,2013-04-30 18:56:00,
2013-04-30 15:01:00,69.4,56.7,29.99,ESE,118,4.0,8.0,64,0.00,OVC,SCT,0.00,508.0,WeatherDisplay:10.37,2013-04-30 19:01:00,
2013-04-30 15:06:00,69.5,56.8,29.99,SE,134,3.9,5.8,64,0.00,OVC,SCT,0.00,506.0,WeatherDisplay:10.37,2013-04-30 19:06:00,
2013-04-30 15:11:00,69.8,57.5,29.99,WSW,246,2.8,5.0,65,0.00,OVC,SCT,0.00,483.0,WeatherDisplay:10.37,2013-04-30 19:11:00,
2013-04-30 15:16:00,70.0,56.8,29.99,ESE,120,5.7,11.0,63,0.00,OVC,SCT,0.00,388.0,WeatherDisplay:10.37,2013-04-30 19:16:00,
2013-04-30 15:21:00,69.7,57.0,29.99,SE,126,3.3,5.0,64,0.00,OVC,SCT,0.00,339.0,WeatherDisplay:10.37,2013-04-30 19:21:00,
2013-04-30 15:26:00,69.5,56.3,29.98,SSE,168,4.9,10.4,63,0.00,OVC,SCT,0.00,294.0,WeatherDisplay:10.37,2013-04-30 19:26:00,
2013-04-30 15:31:00,69.3,56.2,29.98,SE,127,5.3,11.5,63,0.00,OVC,SCT,0.00,290.0,WeatherDisplay:10.37,2013-04-30 19:31:00,
2013-04-30 15:36:00,69.4,56.3,29.98,SSE,162,3.6,6.9,63,0.00,OVC,SCT,0.00,287.0,WeatherDisplay:10.37,2013-04-30 19:36:00,
2013-04-30 15:41:00,69.5,56.3,29.98,SE,145,3.0,8.1,63,0.00,OVC,SCT,0.00,295.0,WeatherDisplay:10.37,2013-04-30 19:41:00,
2013-04-30 15:46:00,69.5,56.3,29.98,East,101,4.8,8.1,63,0.00,OVC,SCT,0.00,287.0,WeatherDisplay:10.37,2013-04-30 19:46:00,
2013-04-30 15:51:00,69.6,56.4,29.98,NW,323,1.9,3.5,63,0.00,OVC,SCT,0.00,309.0,WeatherDisplay:10.37,2013-04-30 19:51:00,
2013-04-30 15:56:00,69.8,56.2,29.98,East,85,2.3,5.0,62,0.00,OVC,SCT,0.00,383.0,WeatherDisplay:10.37,2013-04-30 19:56:00,
2013-04-30 16:01:00,70.2,56.6,29.98,East,97,3.9,7.0,62,0.00,OVC,SCT,0.00,373.0,WeatherDisplay:10.37,2013-04-30 20:01:00,
2013-04-30 16:06:00,70.2,56.1,29.98,South,185,3.5,5.8,61,0.00,OVC,SCT,0.00,353.0,WeatherDisplay:10.37,2013-04-30 20:06:00,
2013-04-30 16:11:00,70.1,56.0,29.98,ESE,117,6.5,9.2,61,0.00,OVC,SCT,0.00,336.0,WeatherDisplay:10.37,2013-04-30 20:11:00,
2013-04-30 16:16:00,69.7,55.6,29.98,SSE,160,4.3,8.1,61,0.00,OVC,SCT,0.00,325.0,WeatherDisplay:10.37,2013-04-30 20:16:00,
2013-04-30 16:21:00,69.7,56.1,29.98,South,184,2.6,8.1,62,0.00,OVC,SCT,0.00,338.0,WeatherDisplay:10.37,2013-04-30 20:21:00,
2013-04-30 16:26:00,69.5,55.9,29.97,SSE,159,4.7,10.4,62,0.00,OVC,SCT,0.00,299.0,WeatherDisplay:10.37,2013-04-30 20:26:00,
2013-04-30 16:31:00,69.4,56.7,29.98,ESE,117,4.2,8.1,64,0.00,OVC,SCT,0.00,332.0,WeatherDisplay:10.37,2013-04-30 20:31:00,
2013-04-30 16:36:00,69.5,55.9,29.97,SE,126,3.4,4.6,62,0.00,OVC,SCT,0.00,329.0,WeatherDisplay:10.37,2013-04-30 20:36:00,
2013-04-30 16:41:00,69.7,56.5,29.97,South,169,2.3,3.5,63,0.00,OVC,SCT,0.00,278.0,WeatherDisplay:10.37,2013-04-30 20:41:00,
2013-04-30 16:46:00,69.8,56.2,29.97,ESE,113,4.6,8.1,62,0.00,OVC,SCT,0.00,246.0,WeatherDisplay:10.37,2013-04-30 20:46:00,
2013-04-30 16:51:00,69.5,55.9,29.97,SE,129,3.0,6.0,62,0.00,OVC,SCT,0.00,243.0,WeatherDisplay:10.37,2013-04-30 20:51:00,
2013-04-30 16:56:00,69.4,56.3,29.97,SSW,205,1.7,3.5,63,0.00,OVC,SCT,0.00,225.0,WeatherDisplay:10.37,2013-04-30 20:56:00,
2013-04-30 17:01:00,69.4,55.8,29.97,SE,144,2.0,4.0,62,0.00,BKN,SCT,0.00,323.0,WeatherDisplay:10.37,2013-04-30 21:01:00,
2013-04-30 17:06:00,69.6,56.4,29.97,SE,146,1.6,4.0,63,0.00,BKN,SCT,0.00,366.0,WeatherDisplay:10.37,2013-04-30 21:06:00,
2013-04-30 17:11:00,69.9,56.3,29.97,South,191,1.6,4.6,62,0.00,BKN,SCT,0.00,348.0,WeatherDisplay:10.37,2013-04-30 21:11:00,
2013-04-30 17:16:00,70.0,55.9,29.97,South,186,2.7,5.8,61,0.00,BKN,SCT,0.00,290.0,WeatherDisplay:10.37,2013-04-30 21:16:00,
2013-04-30 17:21:00,69.9,56.3,29.97,SSW,200,1.5,4.6,62,0.00,BKN,SCT,0.00,246.0,WeatherDisplay:10.37,2013-04-30 21:21:00,
2013-04-30 17:26:00,69.9,56.3,29.97,SSW,198,3.5,6.9,62,0.00,BKN,SCT,0.00,265.0,WeatherDisplay:10.37,2013-04-30 21:26:00,
2013-04-30 17:31:00,69.9,55.8,29.97,SE,133,2.5,8.1,61,0.00,BKN,SCT,0.00,279.0,WeatherDisplay:10.37,2013-04-30 21:31:00,
2013-04-30 17:36:00,69.9,55.8,29.97,ESE,119,4.3,8.1,61,0.00,BKN,SCT,0.00,258.0,WeatherDisplay:10.37,2013-04-30 21:36:00,
2013-04-30 17:41:00,69.9,56.3,29.97,SE,130,3.4,5.8,62,0.00,BKN,SCT,0.00,274.0,WeatherDisplay:10.37,2013-04-30 21:41:00,
2013-04-30 17:46:00,70.1,56.0,29.97,SE,136,1.7,4.0,61,0.00,BKN,SCT,0.00,475.0,WeatherDisplay:10.37,2013-04-30 21:46:00,
2013-04-30 17:51:00,70.7,56.6,29.97,ESE,119,2.1,6.9,61,0.00,BKN,SCT,0.00,397.0,WeatherDisplay:10.37,2013-04-30 21:51:00,
2013-04-30 17:56:00,70.9,56.3,29.97,SSE,165,2.6,5.0,60,0.00,BKN,SCT,0.00,316.0,WeatherDisplay:10.37,2013-04-30 21:56:00,
2013-04-30 18:01:00,70.8,56.2,29.97,SE,132,1.1,5.8,60,0.00,BKN,SCT,0.00,283.0,WeatherDisplay:10.37,2013-04-30 22:01:00,
2013-04-30 18:06:00,71.0,56.4,29.97,SE,125,1.3,3.5,60,0.00,BKN,SCT,0.00,364.0,WeatherDisplay:10.37,2013-04-30 22:06:00,
2013-04-30 18:11:00,71.1,56.5,29.97,ESE,123,4.1,6.9,60,0.00,BKN,SCT,0.00,383.0,WeatherDisplay:10.37,2013-04-30 22:11:00,
2013-04-30 18:16:00,70.9,55.9,29.97,SSE,167,3.5,4.6,59,0.00,BKN,SCT,0.00,362.0,WeatherDisplay:10.37,2013-04-30 22:16:00,
2013-04-30 18:21:00,70.9,55.9,29.97,SE,124,2.6,4.6,59,0.00,BKN,SCT,0.00,341.0,WeatherDisplay:10.37,2013-04-30 22:21:00,
2013-04-30 18:26:00,70.9,55.4,29.98,SSW,209,2.3,6.9,58,0.00,BKN,SCT,0.00,322.0,WeatherDisplay:10.37,2013-04-30 22:26:00,
2013-04-30 18:31:00,71.0,55.9,29.98,East,82,2.5,7.0,59,0.00,BKN,SCT,0.00,301.0,WeatherDisplay:10.37,2013-04-30 22:31:00,
2013-04-30 18:36:00,70.8,55.8,29.98,ESE,108,2.3,4.6,59,0.00,BKN,SCT,0.00,281.0,WeatherDisplay:10.37,2013-04-30 22:36:00,
2013-04-30 18:41:00,70.6,55.6,29.98,SSW,200,1.6,5.0,59,0.00,BKN,SCT,0.00,239.0,WeatherDisplay:10.37,2013-04-30 22:41:00,
2013-04-30 18:46:00,70.5,55.9,29.98,SE,132,1.4,3.5,60,0.00,BKN,SCT,0.00,176.0,WeatherDisplay:10.37,2013-04-30 22:46:00,
2013-04-30 18:51:00,70.4,55.8,29.98,SE,141,1.3,3.5,60,0.00,BKN,SCT,0.00,95.0,WeatherDisplay:10.37,2013-04-30 22:51:00,
2013-04-30 18:56:00,70.2,55.7,29.98,ESE,119,2.6,3.5,60,0.00,BKN,SCT,0.00,125.0,WeatherDisplay:10.37,2013-04-30 22:56:00,
2013-04-30 19:01:00,69.9,55.4,29.98,South,183,1.3,5.0,60,0.00,BKN,SCT,0.00,90.0,WeatherDisplay:10.37,2013-04-30 23:01:00,
2013-04-30 19:06:00,69.5,55.5,29.98,SSE,167,0.8,2.3,61,0.00,BKN,SCT,0.00,79.0,WeatherDisplay:10.37,2013-04-30 23:06:00,
2013-04-30 19:11:00,69.2,55.6,29.98,SE,130,1.4,3.5,62,0.00,BKN,SCT,0.00,70.0,WeatherDisplay:10.37,2013-04-30 23:11:00,
2013-04-30 19:16:00,68.9,55.3,29.98,SE,132,0.9,2.3,62,0.00,BKN,SCT,0.00,53.0,WeatherDisplay:10.37,2013-04-30 23:16:00,
2013-04-30 19:21:00,68.6,55.5,29.98,SE,134,1.2,2.3,63,0.00,BKN,SCT,0.00,53.0,WeatherDisplay:10.37,2013-04-30 23:21:00,
2013-04-30 19:26:00,68.3,55.2,29.98,SSE,159,0.9,2.3,63,0.00,BKN,SCT,0.00,44.0,WeatherDisplay:10.37,2013-04-30 23:26:00,
2013-04-30 19:31:00,68.0,55.4,29.98,SE,129,1.5,3.5,64,0.00,BKN,SCT,0.00,42.0,WeatherDisplay:10.37,2013-04-30 23:31:00,
2013-04-30 19:36:00,67.6,55.0,29.98,SE,128,1.0,2.3,64,0.00,BKN,SCT,0.00,51.0,WeatherDisplay:10.37,2013-04-30 23:36:00,
2013-04-30 19:41:00,67.2,55.0,29.99,SE,129,0.6,2.3,65,0.00,BKN,SCT,0.00,35.0,WeatherDisplay:10.37,2013-04-30 23:41:00,
2013-04-30 19:46:00,66.8,54.7,29.99,ESE,120,0.8,3.5,65,0.00,BKN,SCT,0.00,33.0,WeatherDisplay:10.37,2013-04-30 23:46:00,
2013-04-30 19:51:00,66.5,54.8,29.99,ESE,123,2.0,3.5,66,0.00,BKN,SCT,0.00,23.0,WeatherDisplay:10.37,2013-04-30 23:51:00,
2013-04-30 19:56:00,66.1,54.8,29.99,ESE,123,0.8,2.3,67,0.00,BKN,SCT,0.00,23.0,WeatherDisplay:10.37,2013-04-30 23:56:00,
2013-04-30 20:01:00,65.8,54.5,30.00,ESE,123,0.1,1.2,67,0.00,BKN,SCT,0.00,16.0,WeatherDisplay:10.37,2013-05-01 00:01:00,
2013-04-30 20:06:00,65.3,54.5,30.00,SE,124,0.5,2.0,68,0.00,BKN,SCT,0.00,11.0,WeatherDisplay:10.37,2013-05-01 00:06:00,
2013-04-30 20:11:00,65.0,54.6,30.00,SE,124,0.0,1.2,69,0.00,BKN,SCT,0.00,9.0,WeatherDisplay:10.37,2013-05-01 00:11:00,
2013-04-30 20:16:00,64.6,54.6,30.00,SE,124,0.2,1.2,70,0.00,BKN,SCT,0.00,7.0,WeatherDisplay:10.37,2013-05-01 00:16:00,
2013-04-30 20:21:00,64.2,54.2,30.00,SE,124,0.3,1.2,70,0.00,BKN,SCT,0.00,5.0,WeatherDisplay:10.37,2013-05-01 00:21:00,
2013-04-30 20:26:00,63.8,54.2,30.00,SE,124,0.1,1.2,71,0.00,BKN,SCT,0.00,0.0,WeatherDisplay:10.37,2013-05-01 00:26:00,
2013-04-30 20:31:00,63.5,54.3,30.00,SE,124,0.2,1.2,72,0.00,BKN,SCT,0.00,0.0,WeatherDisplay:10.37,2013-05-01 00:31:00,
2013-04-30 20:36:00,63.1,53.9,30.00,SE,124,0.0,2.3,72,0.00,BKN,SCT,0.00,0.0,WeatherDisplay:10.37,2013-05-01 00:36:00,
2013-04-30 20:41:00,62.8,54.0,30.00,SE,124,0.0,1.2,73,0.00,BKN,SCT,0.00,0.0,WeatherDisplay:10.37,2013-05-01 00:41:00,
2013-04-30 20:46:00,62.4,53.6,30.01,SE,124,0.1,1.0,73,0.00,BKN,SCT,0.00,0.0,WeatherDisplay:10.37,2013-05-01 00:46:00,
2013-04-30 20:51:00,62.1,53.7,30.01,SE,124,0.0,0.0,74,0.00,BKN,SCT,0.00,0.0,WeatherDisplay:10.37,2013-05-01 00:51:00,
2013-04-30 20:56:00,61.8,53.8,30.01,SE,124,0.0,0.0,75,0.00,BKN,SCT,0.00,0.0,WeatherDisplay:10.37,2013-05-01 00:56:00,
2013-04-30 21:01:00,61.5,53.5,30.01,SE,124,0.0,0.0,75,0.00,BKN,SCT,0.00,0.0,WeatherDisplay:10.37,2013-05-01 01:01:00,
2013-04-30 21:06:00,61.2,53.6,30.01,SE,124,0.0,0.0,76,0.00,BKN,SCT,0.00,0.0,WeatherDisplay:10.37,2013-05-01 01:06:00,
2013-04-30 21:11:00,61.0,53.4,30.02,SE,124,0.1,1.2,76,0.00,BKN,SCT,0.00,0.0,WeatherDisplay:10.37,2013-05-01 01:11:00,
2013-04-30 21:16:00,60.8,53.5,30.02,SE,124,0.0,0.0,77,0.00,BKN,SCT,0.00,0.0,WeatherDisplay:10.37,2013-05-01 01:16:00,
2013-04-30 21:21:00,60.4,53.2,30.02,SE,124,0.0,0.0,77,0.00,BKN,SCT,0.00,0.0,WeatherDisplay:10.37,2013-05-01 01:21:00,
2013-04-30 21:26:00,60.2,53.3,30.02,SE,124,0.0,0.0,78,0.00,BKN,SCT,0.00,0.0,WeatherDisplay:10.37,2013-05-01 01:26:00,
2013-04-30 21:31:00,59.9,53.0,30.02,SE,124,0.0,0.0,78,0.00,BKN,SCT,0.00,0.0,WeatherDisplay:10.37,2013-05-01 01:31:00,
2013-04-30 21:36:00,59.6,53.1,30.02,SE,124,0.0,0.0,79,0.00,BKN,SCT,0.00,0.0,WeatherDisplay:10.37,2013-05-01 01:36:00,
2013-04-30 21:41:00,59.3,52.8,30.03,SE,124,0.0,0.0,79,0.00,BKN,SCT,0.00,0.0,WeatherDisplay:10.37,2013-05-01 01:41:00,
2013-04-30 21:46:00,59.0,52.8,30.03,SE,124,0.0,0.0,80,0.00,BKN,SCT,0.00,0.0,WeatherDisplay:10.37,2013-05-01 01:46:00,
2013-04-30 21:51:00,58.8,52.6,30.03,SE,124,0.0,0.0,80,0.00,BKN,SCT,0.00,0.0,WeatherDisplay:10.37,2013-05-01 01:51:00,
2013-04-30 21:56:00,58.6,52.4,30.03,SE,124,0.0,0.0,80,0.00,BKN,SCT,0.00,0.0,WeatherDisplay:10.37,2013-05-01 01:56:00,
2013-04-30 22:01:00,58.5,52.7,30.03,SE,124,0.0,0.0,81,0.00,BKN,SCT,0.00,0.0,WeatherDisplay:10.37,2013-05-01 02:01:00,
2013-04-30 22:06:00,58.4,52.6,30.03,SE,124,0.0,0.0,81,0.00,BKN,SCT,0.00,0.0,WeatherDisplay:10.37,2013-05-01 02:06:00,
2013-04-30 22:11:00,58.3,52.5,30.03,SE,124,0.0,0.0,81,0.00,BKN,SCT,0.00,0.0,WeatherDisplay:10.37,2013-05-01 02:11:00,
2013-04-30 22:16:00,58.1,52.3,30.03,SE,124,0.0,1.2,81,0.00,BKN,SCT,0.00,0.0,WeatherDisplay:10.37,2013-05-01 02:16:00,
2013-04-30 22:21:00,58.0,52.2,30.04,SE,124,0.2,1.2,81,0.00,BKN,SCT,0.00,0.0,WeatherDisplay:10.37,2013-05-01 02:21:00,
2013-04-30 22:26:00,57.9,52.1,30.03,SE,124,0.1,2.3,81,0.00,BKN,SCT,0.00,0.0,WeatherDisplay:10.37,2013-05-01 02:26:00,
2013-04-30 22:31:00,57.8,52.3,30.04,SE,124,0.0,1.2,82,0.00,BKN,SCT,0.00,0.0,WeatherDisplay:10.37,2013-05-01 02:31:00,
2013-04-30 22:36:00,57.7,52.2,30.03,SE,124,0.3,1.2,82,0.00,BKN,SCT,0.00,0.0,WeatherDisplay:10.37,2013-05-01 02:36:00,
2013-04-30 22:41:00,57.6,52.1,30.03,SE,124,0.1,1.2,82,0.00,BKN,SCT,0.00,0.0,WeatherDisplay:10.37,2013-05-01 02:41:00,
2013-04-30 22:46:00,57.5,52.0,30.03,SE,124,0.0,0.0,82,0.00,BKN,SCT,0.00,0.0,WeatherDisplay:10.37,2013-05-01 02:46:00,
2013-04-30 22:51:00,57.4,51.9,30.04,SE,124,0.0,0.0,82,0.00,BKN,SCT,0.00,0.0,WeatherDisplay:10.37,2013-05-01 02:51:00,
2013-04-30 22:56:00,57.3,51.9,30.04,SE,124,0.0,0.0,82,0.00,BKN,SCT,0.00,0.0,WeatherDisplay:10.37,2013-05-01 02:56:00,
2013-04-30 23:01:00,57.2,52.1,30.04,SE,124,0.0,0.0,83,0.00,BKN,SCT,0.00,0.0,WeatherDisplay:10.37,2013-05-01 03:01:00,
2013-04-30 23:06:00,57.1,52.0,30.04,SE,124,0.0,0.0,83,0.00,BKN,SCT,0.00,0.0,WeatherDisplay:10.37,2013-05-01 03:06:00,
2013-04-30 23:11:00,57.0,51.9,30.04,SE,124,0.0,0.0,83,0.00,BKN,SCT,0.00,0.0,WeatherDisplay:10.37,2013-05-01 03:11:00,
2013-04-30 23:16:00,56.8,51.7,30.04,SE,124,0.0,0.0,83,0.00,BKN,SCT,0.00,0.0,WeatherDisplay:10.37,2013-05-01 03:16:00,
2013-04-30 23:21:00,56.7,51.9,30.04,SE,124,0.0,1.2,84,0.00,BKN,SCT,0.00,0.0,WeatherDisplay:10.37,2013-05-01 03:21:00,
2013-04-30 23:26:00,56.7,51.9,30.04,SE,124,0.0,0.0,84,0.00,BKN,SCT,0.00,0.0,WeatherDisplay:10.37,2013-05-01 03:26:00,
2013-04-30 23:31:00,56.6,51.8,30.04,SE,124,0.0,0.0,84,0.00,BKN,SCT,0.00,0.0,WeatherDisplay:10.37,2013-05-01 03:31:00,
2013-04-30 23:36:00,56.5,51.7,30.04,SE,124,0.0,0.0,84,0.00,BKN,SCT,0.00,0.0,WeatherDisplay:10.37,2013-05-01 03:36:00,
2013-04-30 23:41:00,56.4,51.9,30.04,SE,124,0.0,1.2,85,0.00,BKN,SCT,0.00,0.0,WeatherDisplay:10.37,2013-05-01 03:41:00,
2013-04-30 23:46:00,56.4,51.9,30.04,SE,124,0.0,1.2,85,0.00,BKN,SCT,0.00,0.0,WeatherDisplay:10.37,2013-05-01 03:46:00,
2013-04-30 23:51:00,56.3,51.8,30.04,SE,124,0.0,0.0,85,0.00,BKN,SCT,0.00,0.0,WeatherDisplay:10.37,2013-05-01 03:51:00,
2013-04-30 23:56:00,56.2,51.7,30.04,SE,124,0.0,0.0,85,0.00,BKN,SCT,0.00,0.0,WeatherDisplay:10.37,2013-05-01 03:56:00,